Simultaneous Nadir Overpasses (SNOs) Predictions

Prediction of SNOs between NOAA-21 and METOP-B Satellite Orbit:

Table of predicted SNOs for the next 14.0 days since TLE Epoch: 11/16/2024
Index Date (NOAA-21) Time (NOAA-21) Lat,Lon (NOAA-21) SZA (NOAA-21 ) Date (METOP-B) Time (METOP-B) Lat,Lon (METOP-B) SZA (METOP-B ) Distance(km) Time Diff (sec)
1 11/25/2024 07:26:33 74.44, 56.69 95.37 11/25/2024 07:27:39 74.39, 59.72 95.22 90.89 66
2 11/25/2024 08:17:15 -74.32,-135.68 84.76 11/25/2024 08:18:23 -74.28,-133.22 84.88 74.06 68
3 11/25/2024 09:07:56 74.11, 32.17 95.02 11/25/2024 09:09:07 74.05, 33.54 94.92 42.28 71
4 11/25/2024 09:58:39 -74.03,-160.33 85.06 11/25/2024 09:59:51 -73.95,-159.39 85.18 30.46 72
5 11/25/2024 10:49:20 73.82, 7.50 94.72 11/25/2024 10:50:33 73.81, 7.63 94.71 3.95 73
6 11/25/2024 11:40:04 -73.79, 174.87 85.30 11/25/2024 11:41:15 -73.81, 174.94 85.30 2.67 71
7 11/25/2024 12:30:49 73.77, -17.77 94.69 11/25/2024 12:31:55 73.77, -17.81 94.68 1.19 66
8 11/25/2024 13:21:33 -73.75, 149.60 85.33 11/25/2024 13:22:37 -73.77, 149.50 85.32 3.48 64
9 11/25/2024 14:12:19 73.78, -43.16 94.71 11/25/2024 14:13:16 73.78, -43.13 94.70 1.05 57
10 11/25/2024 15:03:03 -73.76, 124.21 85.31 11/25/2024 15:03:58 -73.77, 124.18 85.30 2.09 55
11 11/25/2024 15:53:49 73.79, -68.55 94.73 11/25/2024 15:54:37 73.79, -68.45 94.72 3.24 48
12 11/25/2024 16:44:33 -73.76, 98.82 85.29 11/25/2024 16:45:19 -73.78, 98.86 85.28 2.49 46
13 11/25/2024 17:35:18 73.74, -93.83 94.70 11/25/2024 17:35:59 73.74, -93.89 94.70 1.85 41
14 11/25/2024 18:26:03 -73.77, 73.43 85.27 11/25/2024 18:26:41 -73.74, 73.43 85.31 3.33 38
15 11/25/2024 19:16:48 73.75,-119.22 94.72 11/25/2024 19:17:20 73.75,-119.21 94.72 0.39 32
16 11/25/2024 20:07:32 -73.73, 48.15 85.30 11/25/2024 20:08:02 -73.75, 48.11 85.29 2.74 30
17 11/25/2024 20:58:18 73.76,-144.61 94.74 11/25/2024 20:58:41 73.76,-144.53 94.74 2.56 23
18 11/25/2024 21:49:02 -73.73, 22.76 85.28 11/25/2024 21:49:23 -73.76, 22.79 85.26 2.53 21
19 11/25/2024 22:39:47 73.72,-169.88 94.71 11/25/2024 22:40:03 73.72,-169.96 94.71 2.55 16
20 11/25/2024 23:30:32 -73.74, -2.63 85.26 11/25/2024 23:30:45 -73.71, -2.65 85.29 3.06 13
21 11/26/2024 00:21:16 73.72, 164.73 94.73 11/26/2024 00:21:23 73.73, 164.72 94.73 0.58 7
22 11/26/2024 01:12:01 -73.75, -28.02 85.24 11/26/2024 01:12:05 -73.72, -27.97 85.27 3.22 4
23 11/26/2024 02:02:46 73.73, 139.34 94.75 11/26/2024 02:02:44 73.73, 139.40 94.75 1.96 2
24 11/26/2024 02:53:30 -73.70, -53.29 85.27 11/26/2024 02:53:26 -73.73, -53.29 85.25 2.77 4
25 11/26/2024 03:44:15 73.69, 114.06 94.72 11/26/2024 03:44:06 73.69, 113.96 94.73 3.26 9
26 11/26/2024 04:35:00 -73.71, -78.68 85.25 11/26/2024 04:34:48 -73.69, -78.73 85.27 2.99 12
27 11/26/2024 05:25:45 73.69, 88.67 94.74 11/26/2024 05:25:27 73.70, 88.64 94.75 1.24 18
28 11/26/2024 06:16:30 -73.72,-104.07 85.23 11/26/2024 06:16:09 -73.70,-104.05 85.25 2.67 21
29 11/26/2024 07:07:15 73.70, 63.28 94.76 11/26/2024 07:06:48 73.71, 63.32 94.77 1.47 27
30 11/26/2024 07:57:59 -73.68,-129.35 85.27 11/26/2024 07:57:30 -73.70,-129.37 85.23 3.14 29
31 11/26/2024 08:48:45 73.71, 37.89 94.78 11/26/2024 08:48:09 73.72, 38.00 94.79 3.53 36
32 11/26/2024 09:39:29 -73.68,-154.74 85.24 11/26/2024 09:38:52 -73.66,-154.80 85.26 3.11 37
33 11/26/2024 10:30:14 73.67, 12.61 94.75 11/26/2024 10:29:31 73.67, 12.56 94.76 1.91 43
34 11/26/2024 11:20:59 -73.69, 179.87 85.22 11/26/2024 11:20:13 -73.67, 179.88 85.24 2.26 46
35 11/26/2024 12:11:44 73.67, -12.78 94.77 11/26/2024 12:10:52 73.68, -12.76 94.79 1.20 52
36 11/26/2024 13:02:29 -73.70, 154.48 85.20 11/26/2024 13:01:34 -73.68, 154.56 85.22 3.19 55
37 11/26/2024 13:53:14 73.68, -38.17 94.79 11/26/2024 13:52:13 73.69, -38.08 94.81 2.99 61
38 11/26/2024 14:43:58 -73.65, 129.21 85.24 11/26/2024 14:42:56 -73.64, 129.12 85.24 3.39 62
39 11/26/2024 15:34:43 73.64, -63.44 94.76 11/26/2024 15:33:35 73.65, -63.52 94.78 2.57 68
40 11/26/2024 16:25:28 -73.66, 103.81 85.22 11/26/2024 16:24:17 -73.64, 103.80 85.22 2.05 71
41 11/26/2024 17:16:11 73.54, -88.60 94.67 11/26/2024 17:14:58 73.55, -89.07 94.71 14.61 73
42 11/26/2024 18:06:54 -73.47, 78.88 85.41 11/26/2024 18:05:41 -73.50, 78.14 85.34 23.80 73
43 11/26/2024 18:57:35 73.25,-113.32 94.37 11/26/2024 18:56:25 73.26,-115.06 94.45 55.82 70
44 11/26/2024 19:48:18 -73.18, 54.16 85.70 11/26/2024 19:47:09 -73.16, 52.04 85.65 68.25 69



Historial Predications of SNOs between NOAA-21 and METOP-B
